Regional Weather Roundup
Issued by NWS Memphis, TN

Home | Current Version | Previous Version | Text Only | Print | Product List | Glossary On
Versions: 1 2 3 4 5 6 7 8 9 10 11 12 13 14 15 16 17 18 19 20 21 22 23 24 25 26 27 28 29 30 31 32 33 34 35 36 37 38 39 40 41 42 43 44 45 46 47 48 49 50
000
ASUS44 KMEG 312010
RWRMEG
MEMPHIS CWA HOURLY WEATHER ROUNDUP
NATIONAL WEATHER SERVICE MEMPHIS TN
200 PM CST SAT JAN 31 2015

...WEST TENNESSEE...

CITY           SKY/WX    TMP DP  RH WIND       PRES   REMARKS
MEMPHIS INTL   CLOUDY    46  23  40 E6        30.25F
NWS MEMPHIS      N/A     45 N/A N/A MISG        N/A
JACKSON        CLOUDY    45  22  40 VRB7      30.27F
LEXINGTON      SUNNY     46  18  31 VRB5      30.27F
SAVANNAH       SUNNY     48  18  29 E3        30.28F
DYERSBURG      CLOUDY    45  19  36 SE5       30.30S
UNION CITY     MOSUNNY   41  25  52 SE9       30.26F
PARIS          PTSUNNY   43  19  39 E7        30.29F


...EASTERN ARKANSAS...

CITY           SKY/WX    TMP DP  RH WIND       PRES   REMARKS
JONESBORO      CLOUDY    43  26  51 VRB5      30.27F
WEST MEMPHIS   CLOUDY    45  26  47 E5        30.26F
BATESVILLE     PTSUNNY   46  27  46 E6        30.24F
NEWPORT        CLOUDY    46  27  48 CALM      30.28F
WALNUT RIDGE   CLOUDY    45  25  45 S6        30.26F
BLYTHEVILLE    CLOUDY    45  25  45 S5        30.29F
SEARCY         CLOUDY    47  27  45 S7        30.26F
STUTTGART      CLOUDY    45  27  49 CALM      30.25F
PINE BLUFF     CLOUDY    47  28  47 E6        30.24F
MONTICELLO     PTSUNNY   54  28  36 SE8       30.21F


...NORTH MISSISSIPPI...

CITY           SKY/WX    TMP DP  RH WIND       PRES   REMARKS
TUPELO         CLOUDY    53  19  26 SE6       30.26F
OXFORD         CLOUDY    48  21  34 SE6       30.26F
OLIVE BRANCH   CLOUDY    43  27  52 SE6       30.26F
TUNICA         CLOUDY    46  28  49 NE3       30.27F
CLARKSDALE     CLOUDY    46  28  49 E5        30.26F
CORINTH        CLOUDY    48  23  37 CALM      30.27F
GRENADA        CLOUDY    50  27  40 E7        30.25F
GREENWOOD      CLOUDY    61  21  21 E8        30.22F
COLUMBUS       MOSUNNY   60  13  16 VRB5      30.25F
STARKVILLE     FAIR      55  23  28 E5        30.25F
GOLDEN TRIANGL MOSUNNY   57  23  26 SE10      30.26F


...SOUTHEAST MISSOURI...

CITY           SKY/WX    TMP DP  RH WIND       PRES   REMARKS
WEST PLAINS    CLOUDY    44  18  35 SE9       30.19F
POPLAR BLUFF   CLOUDY    42  27  55 CALM      30.28F
CAPE GIRARDEAU CLOUDY    43  25  49 VRB3      30.26F


...NORTHWEST ALABAMA...

CITY           SKY/WX    TMP DP  RH WIND       PRES   REMARKS
MUSCLE SHOALS  CLOUDY    51  18  27 E6        30.29F


...MIDDLE TENNESSEE...

CITY           SKY/WX    TMP DP  RH WIND       PRES   REMARKS
NASHVILLE      CLOUDY    46  19  34 E3        30.31F
CLARKSVILLE    CLOUDY    47  18  31 CALM      30.30F
COLUMBIA       SUNNY     48  19  32 CALM      30.28F


...WESTERN KENTUCKY...

CITY           SKY/WX    TMP DP  RH WIND       PRES   REMARKS
PADUCAH        CLOUDY    44  23  43 SE6       30.28F
FORT CAMPBELL  CLOUDY    46  19  33 VRB1      30.30F


...CENTRAL ARKANSAS...

CITY           SKY/WX    TMP DP  RH WIND       PRES   REMARKS
LITTLE ROCK    CLOUDY    46  26  45 E7        30.23F


SKY/WX REPORTED AS FAIR MEANS FEW OR NO CLOUDS BELOW
12 THOUSAND FEET.



USA.gov is the U.S. government's official web portal to all federal, state and local government web resources and services.